Regional Weather Roundup
Issued by NWS

Home | Current Version | Previous Version | Graphics & Text | Print | Product List | Glossary On
Versions: 1 2 3 4 5 6 7 8 9 10 11 12 13 14 15 16 17 18 19 20 21 22 23 24 25 26 27 28 29 30 31 32 33 34 35 36 37 38 39 40 41 42 43 44 45 46 47 48 49 50
712
ASUS45 KCYS 242210
RWRWY

WYOMING REGIONAL WEATHER ROUNDUP
NATIONAL WEATHER SERVICE CHEYENNE WY
300 PM MST FRI FEB 24 2017

NOTE:  "FAIR" INDICATES FEW OR NO CLOUDS BELOW 12,000 FEET
WITH NO SIGNIFICANT WEATHER AND/OR OBSTRUCTIONS TO VISIBILITY.

WYZ001-242300-
YELLOWSTONE NATIONAL PARK

CITY           SKY/WX    TMP DP  RH WIND       PRES   REMARKS
LK YELLOWSTONE   N/A     15   8  73 W8        29.87R WCI   4
W YELLOWSTONE  NOT AVBL

$$
WYZ002>013-054>058-071-098>099-242300-
NORTHERN WYOMING

CITY           SKY/WX    TMP DP  RH WIND       PRES   REMARKS
JACKSON        PTSUNNY   19  12  73 SE20      29.92R WCI   4
CODY           CLOUDY    27  16  63 NE8       29.94R WCI  19
GREYBULL       CLOUDY    29  20  69 CALM      29.97S
WORLAND        FAIR      30  21  69 NE5       29.96S WCI  25
SHERIDAN       FAIR      28  20  71 S6        29.97R WCI  22
BUFFALO        PTSUNNY   25  18  74 SE9       29.93S WCI  15
GILLETTE       CLOUDY    27  21  78 S12       29.96S WCI  17
HULETT         CLOUDY    28  21  74 MISG      29.98S
NEWCASTLE      CLOUDY    25  19  80 S7        30.03S HAZE    WCI  17

$$
WYZ014>020-022>026-101>103-242300-
CENTRAL WYOMING

CITY           SKY/WX    TMP DP  RH WIND       PRES   REMARKS
BIG PINEY      FAIR      17   8  67 W3        29.91R
PINEDALE       FAIR      19   9  63 NW7       29.90S WCI  10
DUBOIS         CLOUDY    21   9  58 CALM      29.83R
LANDER         FAIR      22  15  75 CALM      29.91S
RIVERTON       PTSUNNY   21  14  74 E5        29.92S WCI  15
CASPER         CLOUDY    22  12  65 SW7       29.94S WCI  13
DOUGLAS        FAIR      20  15  81 SE7       29.98R WCI  11

$$
WYZ021-027>030-104>119-242300-
SOUTHERN WYOMING

CITY           SKY/WX    TMP DP  RH WIND       PRES   REMARKS
EVANSTON       CLOUDY    17   9  70 SW18      29.95S WCI   1
FORT BRIDGER   LGT SNOW  21  14  74 W20       29.97R WCI   5
ROCK SPRINGS   FAIR      19  10  68 SW17      29.92R WCI   4
DIXON          FLURRIES  22  13  68 CALM      29.97R
RAWLINS        CLOUDY    17   9  70 W8        29.90R WCI   7
SARATOGA       FAIR      19  10  68 W17       29.91R WCI   4
LARAMIE        CLOUDY    16  10  77 S6        29.83S HAZE    WCI   7
CHEYENNE       CLOUDY    18  10  71 S8        29.91R WCI   8
TORRINGTON     FAIR      25  16  68 NE5       30.02R WCI  19
PINE BLUFFS    CLOUDY    21  14  73 N5        29.98R WCI  15

$$




USA.gov is the U.S. government's official web portal to all federal, state and local government web resources and services.